contact:dominique.lefevre@mio.osupytheas.fr, maurice.libes@osupytheas.fr, didier.mallarino@osupytheas.fr
Project:EMSO http://www.emso-fr.org/EMSO-France
Depth: 2436.0 m
Title:EMSO Ligure Ouest : Data MII capteur MICROCAT
DateTime_Computer,Latitude,Longitude,Temperature,Conductivity,Pressure,DateTime_Instrument
DateTime_Computer,Latitude,Longitude,degC,S m-1,dbar,DateTime_Instrument
2023-09-16T00:01:58Z,42.805,6.029,13.3036,4.60128,2470.707,2023-9-16T02:04:20Z
2023-09-16T00:05:01Z,42.805,6.029,13.3046,4.60132,2470.717,2023-9-16T02:07:24Z
2023-09-16T00:08:05Z,42.805,6.029,13.3034,4.60118,2470.707,2023-9-16T02:10:27Z
2023-09-16T00:11:08Z,42.805,6.029,13.3038,4.60122,2470.67,2023-9-16T02:13:30Z
2023-09-16T00:14:11Z,42.805,6.029,13.3039,4.60125,2470.684,2023-9-16T02:16:33Z
2023-09-16T00:17:14Z,42.805,6.029,13.3034,4.60119,2470.703,2023-9-16T02:19:36Z
2023-09-16T00:20:17Z,42.805,6.029,13.3034,4.60114,2470.693,2023-9-16T02:22:39Z
2023-09-16T00:23:20Z,42.805,6.029,13.3036,4.60128,2470.693,2023-9-16T02:25:42Z
2023-09-16T00:26:23Z,42.805,6.029,13.3041,4.60119,2470.693,2023-9-16T02:28:45Z
2023-09-16T00:29:26Z,42.805,6.029,13.3034,4.60119,2470.707,2023-9-16T02:31:48Z
2023-09-16T00:32:29Z,42.805,6.029,13.3036,4.60122,2470.661,2023-9-16T02:34:51Z
2023-09-16T00:35:32Z,42.805,6.029,13.3033,4.60107,2470.693,2023-9-16T02:37:54Z
2023-09-16T00:38:35Z,42.805,6.029,13.3039,4.60114,2470.67,2023-9-16T02:40:57Z
2023-09-16T00:41:38Z,42.805,6.029,13.3031,4.60114,2470.73,2023-9-16T02:44:00Z
2023-09-16T00:44:42Z,42.805,6.029,13.3037,4.60114,2470.721,2023-9-16T02:47:04Z
2023-09-16T00:47:45Z,42.805,6.029,13.3033,4.60125,2470.693,2023-9-16T02:50:07Z
2023-09-16T00:50:48Z,42.805,6.029,13.3039,4.60120,2470.684,2023-9-16T02:53:10Z
2023-09-16T00:53:51Z,42.805,6.029,13.3043,4.60122,2470.67,2023-9-16T02:56:13Z
2023-09-16T00:56:54Z,42.805,6.029,13.3043,4.60135,2470.684,2023-9-16T02:59:16Z
2023-09-16T00:59:57Z,42.805,6.029,13.3043,4.60128,2470.67,2023-9-16T03:02:19Z
2023-09-16T01:03:00Z,42.805,6.029,13.3038,4.60119,2470.67,2023-9-16T03:05:22Z
2023-09-16T01:06:03Z,42.805,6.029,13.3028,4.60114,2470.646,2023-9-16T03:08:25Z
2023-09-16T01:09:06Z,42.805,6.029,13.3034,4.60113,2470.67,2023-9-16T03:11:28Z
2023-09-16T01:12:09Z,42.805,6.029,13.3036,4.60117,2470.646,2023-9-16T03:14:31Z
2023-09-16T01:15:12Z,42.805,6.029,13.3032,4.60119,2470.67,2023-9-16T03:17:34Z
2023-09-16T01:18:15Z,42.805,6.029,13.3034,4.60122,2470.67,2023-9-16T03:20:37Z
2023-09-16T01:21:19Z,42.805,6.029,13.3036,4.60122,2470.646,2023-9-16T03:23:41Z
2023-09-16T01:24:22Z,42.805,6.029,13.3039,4.60128,2470.646,2023-9-16T03:26:44Z
2023-09-16T01:27:25Z,42.805,6.029,13.3035,4.60122,2470.646,2023-9-16T03:29:47Z
2023-09-16T01:30:28Z,42.805,6.029,13.3034,4.60125,2470.646,2023-9-16T03:32:50Z
2023-09-16T01:33:31Z,42.805,6.029,13.3046,4.60138,2470.646,2023-9-16T03:35:53Z
2023-09-16T01:36:34Z,42.805,6.029,13.3039,4.60135,2470.684,2023-9-16T03:38:56Z
2023-09-16T01:39:37Z,42.805,6.029,13.3043,4.60134,2470.656,2023-9-16T03:41:59Z
2023-09-16T01:42:40Z,42.805,6.029,13.3039,4.60137,2470.67,2023-9-16T03:45:02Z
2023-09-16T01:45:43Z,42.805,6.029,13.3037,4.60129,2470.67,2023-9-16T03:48:05Z
2023-09-16T01:48:46Z,42.805,6.029,13.3048,4.60137,2470.646,2023-9-16T03:51:08Z
2023-09-16T01:51:49Z,42.805,6.029,13.3043,4.60116,2470.67,2023-9-16T03:54:11Z
2023-09-16T01:54:52Z,42.805,6.029,13.3033,4.60122,2470.661,2023-9-16T03:57:14Z
2023-09-16T01:57:56Z,42.805,6.029,13.3044,4.60127,2470.661,2023-9-16T04:00:18Z
2023-09-16T02:00:59Z,42.805,6.029,13.3036,4.60135,2470.684,2023-9-16T04:03:21Z
2023-09-16T02:04:02Z,42.805,6.029,13.3035,4.60115,2470.67,2023-9-16T04:06:24Z
2023-09-16T02:07:05Z,42.805,6.029,13.3038,4.60132,2470.637,2023-9-16T04:09:27Z
2023-09-16T02:10:08Z,42.805,6.029,13.3037,4.60127,2470.661,2023-9-16T04:12:30Z
2023-09-16T02:13:11Z,42.805,6.029,13.3038,4.60126,2470.661,2023-9-16T04:15:33Z
2023-09-16T02:16:14Z,42.805,6.029,13.3039,4.60124,2470.624,2023-9-16T04:18:36Z
2023-09-16T02:19:17Z,42.805,6.029,13.3038,4.60123,2470.67,2023-9-16T04:21:39Z
2023-09-16T02:22:20Z,42.805,6.029,13.3030,4.60117,2470.67,2023-9-16T04:24:42Z
2023-09-16T02:25:23Z,42.805,6.029,13.3039,4.60135,2470.646,2023-9-16T04:27:45Z
2023-09-16T02:28:26Z,42.805,6.029,13.3036,4.60116,2470.646,2023-9-16T04:30:48Z
2023-09-16T02:31:29Z,42.805,6.029,13.3043,4.60119,2470.646,2023-9-16T04:33:51Z
2023-09-16T02:34:33Z,42.805,6.029,13.3043,4.60134,2470.67,2023-9-16T04:36:55Z
2023-09-16T02:37:36Z,42.805,6.029,13.3036,4.60134,2470.67,2023-9-16T04:39:58Z
2023-09-16T02:40:39Z,42.805,6.029,13.3037,4.60124,2470.661,2023-9-16T04:43:01Z
2023-09-16T02:43:42Z,42.805,6.029,13.3036,4.60123,2470.646,2023-9-16T04:46:04Z
2023-09-16T02:46:45Z,42.805,6.029,13.3034,4.60136,2470.646,2023-9-16T04:49:07Z
2023-09-16T02:49:48Z,42.805,6.029,13.3043,4.60127,2470.67,2023-9-16T04:52:10Z
2023-09-16T02:52:51Z,42.805,6.029,13.3041,4.60131,2470.624,2023-9-16T04:55:13Z
2023-09-16T02:55:54Z,42.805,6.029,13.3032,4.60111,2470.646,2023-9-16T04:58:16Z
2023-09-16T02:58:57Z,42.805,6.029,13.3041,4.60127,2470.646,2023-9-16T05:01:19Z
2023-09-16T03:02:00Z,42.805,6.029,13.3032,4.60119,2470.67,2023-9-16T05:04:22Z
2023-09-16T03:05:03Z,42.805,6.029,13.3037,4.60126,2470.646,2023-9-16T05:07:25Z
2023-09-16T03:08:06Z,42.805,6.029,13.3041,4.60127,2470.661,2023-9-16T05:10:28Z
2023-09-16T03:11:09Z,42.805,6.029,13.3038,4.60144,2470.661,2023-9-16T05:13:32Z
2023-09-16T03:14:13Z,42.805,6.029,13.3045,4.60151,2470.661,2023-9-16T05:16:35Z
2023-09-16T03:17:16Z,42.805,6.029,13.3046,4.60136,2470.693,2023-9-16T05:19:38Z
2023-09-16T03:20:19Z,42.805,6.029,13.3046,4.60145,2470.67,2023-9-16T05:22:41Z
2023-09-16T03:23:22Z,42.805,6.029,13.3035,4.60149,2470.646,2023-9-16T05:25:44Z
2023-09-16T03:26:25Z,42.805,6.029,13.3034,4.60132,2470.684,2023-9-16T05:28:47Z
2023-09-16T03:29:28Z,42.805,6.029,13.3041,4.60161,2470.661,2023-9-16T05:31:50Z
2023-09-16T03:32:31Z,42.805,6.029,13.3043,4.60140,2470.661,2023-9-16T05:34:53Z
2023-09-16T03:35:34Z,42.805,6.029,13.3039,4.60126,2470.684,2023-9-16T05:37:56Z
2023-09-16T03:38:37Z,42.805,6.029,13.3045,4.60150,2470.624,2023-9-16T05:40:59Z
2023-09-16T03:41:40Z,42.805,6.029,13.3034,4.60145,2470.67,2023-9-16T05:44:02Z
2023-09-16T03:44:43Z,42.805,6.029,13.3039,4.60140,2470.67,2023-9-16T05:47:05Z
2023-09-16T03:47:46Z,42.805,6.029,13.3039,4.60126,2470.707,2023-9-16T05:50:09Z
2023-09-16T03:50:50Z,42.805,6.029,13.3046,4.60129,2470.707,2023-9-16T05:53:12Z
2023-09-16T03:53:53Z,42.805,6.029,13.3036,4.60127,2470.67,2023-9-16T05:56:15Z
2023-09-16T03:56:56Z,42.805,6.029,13.3036,4.60117,2470.707,2023-9-16T05:59:18Z
2023-09-16T03:59:59Z,42.805,6.029,13.3035,4.60133,2470.67,2023-9-16T06:02:21Z
2023-09-16T04:03:02Z,42.805,6.029,13.3031,4.60117,2470.646,2023-9-16T06:05:24Z
2023-09-16T04:06:05Z,42.805,6.029,13.3042,4.60129,2470.707,2023-9-16T06:08:27Z
2023-09-16T04:09:08Z,42.805,6.029,13.3038,4.60154,2470.67,2023-9-16T06:11:30Z
2023-09-16T04:12:11Z,42.805,6.029,13.3035,4.60137,2470.67,2023-9-16T06:14:33Z
2023-09-16T04:15:14Z,42.805,6.029,13.3036,4.60127,2470.684,2023-9-16T06:17:36Z
2023-09-16T04:18:17Z,42.805,6.029,13.3041,4.60142,2470.73,2023-9-16T06:20:39Z
2023-09-16T04:21:20Z,42.805,6.029,13.3038,4.60129,2470.707,2023-9-16T06:23:42Z
2023-09-16T04:24:23Z,42.805,6.029,13.3039,4.60121,2470.73,2023-9-16T06:26:46Z
2023-09-16T04:27:27Z,42.805,6.029,13.3034,4.60137,2470.717,2023-9-16T06:29:49Z
2023-09-16T04:30:31Z,42.805,6.029,13.3036,4.60123,2470.67,2023-9-16T06:32:53Z
2023-09-16T04:33:34Z,42.805,6.029,13.3043,4.60131,2470.693,2023-9-16T06:35:56Z
2023-09-16T04:36:37Z,42.805,6.029,13.3034,4.60126,2470.693,2023-9-16T06:38:59Z
2023-09-16T04:39:40Z,42.805,6.029,13.3049,4.60137,2470.693,2023-9-16T06:42:02Z
2023-09-16T04:42:43Z,42.805,6.029,13.3034,4.60156,2470.707,2023-9-16T06:45:05Z
2023-09-16T04:45:46Z,42.805,6.029,13.3039,4.60147,2470.74,2023-9-16T06:48:08Z
2023-09-16T04:48:49Z,42.805,6.029,13.3048,4.60175,2470.693,2023-9-16T06:51:12Z
2023-09-16T04:51:53Z,42.805,6.029,13.3041,4.60126,2470.73,2023-9-16T06:54:15Z
2023-09-16T04:54:56Z,42.805,6.029,13.3048,4.60157,2470.693,2023-9-16T06:57:18Z
2023-09-16T04:57:59Z,42.805,6.029,13.3046,4.60139,2470.717,2023-9-16T07:00:21Z
2023-09-16T05:01:02Z,42.805,6.029,13.3052,4.60148,2470.73,2023-9-16T07:03:24Z
2023-09-16T05:04:05Z,42.805,6.029,13.3033,4.60137,2470.73,2023-9-16T07:06:27Z
2023-09-16T05:07:08Z,42.805,6.029,13.3038,4.60134,2470.73,2023-9-16T07:09:30Z
2023-09-16T05:10:11Z,42.805,6.029,13.3043,4.60131,2470.754,2023-9-16T07:12:33Z
2023-09-16T05:13:14Z,42.805,6.029,13.3033,4.60121,2470.73,2023-9-16T07:15:36Z
2023-09-16T05:16:17Z,42.805,6.029,13.3037,4.60137,2470.754,2023-9-16T07:18:39Z
2023-09-16T05:19:20Z,42.805,6.029,13.3033,4.60143,2470.74,2023-9-16T07:21:42Z
2023-09-16T05:22:23Z,42.805,6.029,13.3052,4.60146,2470.754,2023-9-16T07:24:45Z
2023-09-16T05:25:26Z,42.805,6.029,13.3052,4.60165,2470.717,2023-9-16T07:27:49Z
2023-09-16T05:28:30Z,42.805,6.029,13.3045,4.60127,2470.763,2023-9-16T07:30:52Z
2023-09-16T05:31:33Z,42.805,6.029,13.3043,4.60127,2470.684,2023-9-16T07:33:55Z
2023-09-16T05:34:36Z,42.805,6.029,13.3039,4.60142,2470.74,2023-9-16T07:36:58Z
2023-09-16T05:37:39Z,42.805,6.029,13.3039,4.60125,2470.754,2023-9-16T07:40:01Z
2023-09-16T05:40:42Z,42.805,6.029,13.3042,4.60148,2470.74,2023-9-16T07:43:04Z
2023-09-16T05:43:45Z,42.805,6.029,13.3051,4.60128,2470.754,2023-9-16T07:46:07Z
2023-09-16T05:46:48Z,42.805,6.029,13.3044,4.60154,2470.754,2023-9-16T07:49:10Z
2023-09-16T05:49:51Z,42.805,6.029,13.3036,4.60143,2470.754,2023-9-16T07:52:13Z
2023-09-16T05:52:54Z,42.805,6.029,13.3048,4.60142,2470.763,2023-9-16T07:55:16Z
2023-09-16T05:55:57Z,42.805,6.029,13.3040,4.60166,2470.754,2023-9-16T07:58:19Z
2023-09-16T05:59:00Z,42.805,6.029,13.3051,4.60158,2470.74,2023-9-16T08:01:22Z
2023-09-16T06:02:03Z,42.805,6.029,13.3047,4.60167,2470.754,2023-9-16T08:04:26Z
2023-09-16T06:05:07Z,42.805,6.029,13.3046,4.60169,2470.763,2023-9-16T08:07:29Z
2023-09-16T06:08:10Z,42.805,6.029,13.3061,4.60151,2470.763,2023-9-16T08:10:32Z
2023-09-16T06:11:13Z,42.805,6.029,13.3040,4.60180,2470.763,2023-9-16T08:13:35Z
2023-09-16T06:14:16Z,42.805,6.029,13.3087,4.60163,2470.81,2023-9-16T08:16:38Z
2023-09-16T06:17:19Z,42.805,6.029,13.3045,4.60144,2470.777,2023-9-16T08:19:41Z
2023-09-16T06:20:22Z,42.805,6.029,13.3050,4.60187,2470.8,2023-9-16T08:22:44Z
2023-09-16T06:23:25Z,42.805,6.029,13.3048,4.60170,2470.787,2023-9-16T08:25:47Z
2023-09-16T06:26:28Z,42.805,6.029,13.3047,4.60125,2470.824,2023-9-16T08:28:50Z
2023-09-16T06:29:31Z,42.805,6.029,13.3041,4.60179,2470.8,2023-9-16T08:31:53Z
2023-09-16T06:32:34Z,42.805,6.029,13.3046,4.60160,2470.81,2023-9-16T08:34:56Z
2023-09-16T06:35:37Z,42.805,6.029,13.3046,4.60159,2470.8,2023-9-16T08:38:00Z
2023-09-16T06:38:41Z,42.805,6.029,13.3065,4.60134,2470.824,2023-9-16T08:41:03Z
2023-09-16T06:41:44Z,42.805,6.029,13.3051,4.60147,2470.787,2023-9-16T08:44:06Z
2023-09-16T06:44:47Z,42.805,6.029,13.3048,4.60150,2470.81,2023-9-16T08:47:09Z
2023-09-16T06:47:50Z,42.805,6.029,13.3047,4.60155,2470.8,2023-9-16T08:50:12Z
2023-09-16T06:50:53Z,42.805,6.029,13.3041,4.60144,2470.787,2023-9-16T08:53:15Z
2023-09-16T06:53:56Z,42.805,6.029,13.3044,4.60153,2470.8,2023-9-16T08:56:18Z
2023-09-16T06:56:59Z,42.805,6.029,13.3050,4.60173,2470.81,2023-9-16T08:59:21Z
2023-09-16T07:00:02Z,42.805,6.029,13.3047,4.60156,2470.763,2023-9-16T09:02:24Z
2023-09-16T07:03:05Z,42.805,6.029,13.3050,4.60135,2470.824,2023-9-16T09:05:27Z
2023-09-16T07:06:08Z,42.805,6.029,13.3039,4.60135,2470.787,2023-9-16T09:08:30Z
2023-09-16T07:09:11Z,42.805,6.029,13.3043,4.60132,2470.81,2023-9-16T09:11:33Z
2023-09-16T07:12:14Z,42.805,6.029,13.3061,4.60162,2470.833,2023-9-16T09:14:36Z
2023-09-16T07:15:18Z,42.805,6.029,13.3051,4.60165,2470.81,2023-9-16T09:17:40Z
2023-09-16T07:18:21Z,42.805,6.029,13.3042,4.60139,2470.8,2023-9-16T09:20:43Z
2023-09-16T07:21:24Z,42.805,6.029,13.3041,4.60160,2470.824,2023-9-16T09:23:46Z
2023-09-16T07:24:27Z,42.805,6.029,13.3039,4.60138,2470.81,2023-9-16T09:26:49Z
2023-09-16T07:27:30Z,42.805,6.029,13.3037,4.60135,2470.8,2023-9-16T09:29:52Z
2023-09-16T07:30:33Z,42.805,6.029,13.3041,4.60117,2470.824,2023-9-16T09:32:55Z
2023-09-16T07:33:36Z,42.805,6.029,13.3042,4.60135,2470.847,2023-9-16T09:35:58Z
2023-09-16T07:36:39Z,42.805,6.029,13.3053,4.60164,2470.8,2023-9-16T09:39:01Z
2023-09-16T07:39:42Z,42.805,6.029,13.3043,4.60141,2470.833,2023-9-16T09:42:04Z
2023-09-16T07:42:45Z,42.805,6.029,13.3043,4.60135,2470.857,2023-9-16T09:45:07Z
2023-09-16T07:45:48Z,42.805,6.029,13.3054,4.60135,2470.847,2023-9-16T09:48:10Z
2023-09-16T07:48:51Z,42.805,6.029,13.3051,4.60125,2470.824,2023-9-16T09:51:14Z
2023-09-16T07:51:55Z,42.805,6.029,13.3043,4.60150,2470.833,2023-9-16T09:54:17Z
2023-09-16T07:54:58Z,42.805,6.029,13.3043,4.60143,2470.81,2023-9-16T09:57:20Z
2023-09-16T07:58:01Z,42.805,6.029,13.3039,4.60125,2470.847,2023-9-16T10:00:23Z
2023-09-16T08:01:04Z,42.805,6.029,13.3057,4.60128,2470.833,2023-9-16T10:03:26Z
2023-09-16T08:04:07Z,42.805,6.029,13.3041,4.60159,2470.81,2023-9-16T10:06:29Z
2023-09-16T08:07:10Z,42.805,6.029,13.3045,4.60162,2470.8,2023-9-16T10:09:32Z
2023-09-16T08:10:13Z,42.805,6.029,13.3044,4.60156,2470.833,2023-9-16T10:12:35Z
2023-09-16T08:13:16Z,42.805,6.029,13.3045,4.60138,2470.81,2023-9-16T10:15:38Z
2023-09-16T08:16:19Z,42.805,6.029,13.3049,4.60127,2470.833,2023-9-16T10:18:41Z
2023-09-16T08:19:22Z,42.805,6.029,13.3051,4.60138,2470.81,2023-9-16T10:21:44Z
2023-09-16T08:22:25Z,42.805,6.029,13.3051,4.60135,2470.787,2023-9-16T10:24:47Z
2023-09-16T08:25:28Z,42.805,6.029,13.3045,4.60152,2470.81,2023-9-16T10:27:51Z
2023-09-16T08:28:32Z,42.805,6.029,13.3052,4.60178,2470.833,2023-9-16T10:30:54Z
2023-09-16T08:31:33Z,42.805,6.029,13.3043,4.60140,2470.833,2023-9-16T10:33:55Z
2023-09-16T08:34:36Z,42.805,6.029,13.3047,4.60143,2470.81,2023-9-16T10:36:58Z
2023-09-16T08:37:39Z,42.805,6.029,13.3043,4.60166,2470.857,2023-9-16T10:40:01Z
2023-09-16T08:40:43Z,42.805,6.029,13.3061,4.60150,2470.824,2023-9-16T10:43:05Z
2023-09-16T08:43:46Z,42.805,6.029,13.3040,4.60137,2470.8,2023-9-16T10:46:08Z
2023-09-16T08:46:49Z,42.805,6.029,13.3036,4.60132,2470.824,2023-9-16T10:49:11Z
2023-09-16T08:49:52Z,42.805,6.029,13.3046,4.60156,2470.833,2023-9-16T10:52:14Z
2023-09-16T08:52:55Z,42.805,6.029,13.3044,4.60181,2470.787,2023-9-16T10:55:17Z
2023-09-16T08:55:58Z,42.805,6.029,13.3043,4.60174,2470.81,2023-9-16T10:58:20Z
2023-09-16T08:59:01Z,42.805,6.029,13.3045,4.60152,2470.787,2023-9-16T11:01:23Z
2023-09-16T09:02:04Z,42.805,6.029,13.3042,4.60144,2470.777,2023-9-16T11:04:26Z
2023-09-16T09:05:07Z,42.805,6.029,13.3054,4.60155,2470.787,2023-9-16T11:07:29Z
2023-09-16T09:08:10Z,42.805,6.029,13.3048,4.60170,2470.8,2023-9-16T11:10:32Z
2023-09-16T09:11:13Z,42.805,6.029,13.3059,4.60156,2470.787,2023-9-16T11:13:35Z
2023-09-16T09:14:16Z,42.805,6.029,13.3052,4.60163,2470.787,2023-9-16T11:16:39Z
2023-09-16T09:17:20Z,42.805,6.029,13.3069,4.60147,2470.8,2023-9-16T11:19:42Z
2023-09-16T09:20:23Z,42.805,6.029,13.3054,4.60141,2470.763,2023-9-16T11:22:45Z
2023-09-16T09:23:26Z,42.805,6.029,13.3058,4.60178,2470.81,2023-9-16T11:25:48Z
2023-09-16T09:26:29Z,42.805,6.029,13.3059,4.60166,2470.81,2023-9-16T11:28:51Z
2023-09-16T09:29:32Z,42.805,6.029,13.3053,4.60167,2470.787,2023-9-16T11:31:54Z
2023-09-16T09:32:35Z,42.805,6.029,13.3073,4.60187,2470.763,2023-9-16T11:34:57Z
2023-09-16T09:35:38Z,42.805,6.029,13.3068,4.60190,2470.787,2023-9-16T11:38:00Z
2023-09-16T09:38:41Z,42.805,6.029,13.3064,4.60174,2470.754,2023-9-16T11:41:03Z
2023-09-16T09:41:44Z,42.805,6.029,13.3068,4.60174,2470.74,2023-9-16T11:44:06Z
2023-09-16T09:44:47Z,42.805,6.029,13.3050,4.60169,2470.777,2023-9-16T11:47:09Z
2023-09-16T09:47:50Z,42.805,6.029,13.3045,4.60176,2470.8,2023-9-16T11:50:12Z
2023-09-16T09:50:54Z,42.805,6.029,13.3058,4.60205,2470.74,2023-9-16T11:53:16Z
2023-09-16T09:53:57Z,42.805,6.029,13.3048,4.60174,2470.787,2023-9-16T11:56:19Z
2023-09-16T09:57:00Z,42.805,6.029,13.3053,4.60137,2470.717,2023-9-16T11:59:22Z
2023-09-16T10:00:03Z,42.805,6.029,13.3047,4.60148,2470.777,2023-9-16T12:02:25Z
2023-09-16T10:03:06Z,42.805,6.029,13.3046,4.60143,2470.777,2023-9-16T12:05:28Z
2023-09-16T10:06:09Z,42.805,6.029,13.3054,4.60174,2470.777,2023-9-16T12:08:31Z
2023-09-16T10:09:12Z,42.805,6.029,13.3053,4.60193,2470.8,2023-9-16T12:11:34Z
2023-09-16T10:12:15Z,42.805,6.029,13.3060,4.60169,2470.763,2023-9-16T12:14:37Z
2023-09-16T10:15:18Z,42.805,6.029,13.3047,4.60168,2470.74,2023-9-16T12:17:40Z
2023-09-16T10:18:21Z,42.805,6.029,13.3044,4.60129,2470.754,2023-9-16T12:20:43Z
2023-09-16T10:21:24Z,42.805,6.029,13.3047,4.60116,2470.754,2023-9-16T12:23:46Z
2023-09-16T10:24:28Z,42.805,6.029,13.3045,4.60135,2470.754,2023-9-16T12:26:50Z
2023-09-16T10:27:31Z,42.805,6.029,13.3053,4.60178,2470.787,2023-9-16T12:29:53Z
2023-09-16T10:30:34Z,42.805,6.029,13.3051,4.60152,2470.787,2023-9-16T12:32:56Z
2023-09-16T10:33:37Z,42.805,6.029,13.3038,4.60162,2470.717,2023-9-16T12:35:59Z
2023-09-16T10:36:40Z,42.805,6.029,13.3045,4.60152,2470.717,2023-9-16T12:39:02Z
2023-09-16T10:39:43Z,42.805,6.029,13.3052,4.60136,2470.73,2023-9-16T12:42:05Z
2023-09-16T10:42:46Z,42.805,6.029,13.3043,4.60180,2470.754,2023-9-16T12:45:08Z
2023-09-16T10:45:49Z,42.805,6.029,13.3062,4.60155,2470.777,2023-9-16T12:48:11Z
2023-09-16T10:48:52Z,42.805,6.029,13.3064,4.60172,2470.763,2023-9-16T12:51:14Z
2023-09-16T10:51:55Z,42.805,6.029,13.3063,4.60197,2470.754,2023-9-16T12:54:17Z
2023-09-16T10:54:58Z,42.805,6.029,13.3063,4.60159,2470.73,2023-9-16T12:57:20Z
2023-09-16T10:58:01Z,42.805,6.029,13.3045,4.60167,2470.73,2023-9-16T13:00:24Z
2023-09-16T11:01:05Z,42.805,6.029,13.3053,4.60160,2470.703,2023-9-16T13:03:27Z
2023-09-16T11:04:08Z,42.805,6.029,13.3060,4.60159,2470.74,2023-9-16T13:06:30Z
2023-09-16T11:07:11Z,42.805,6.029,13.3058,4.60170,2470.74,2023-9-16T13:09:33Z
2023-09-16T11:10:14Z,42.805,6.029,13.3056,4.60153,2470.73,2023-9-16T13:12:36Z
2023-09-16T11:13:17Z,42.805,6.029,13.3047,4.60169,2470.717,2023-9-16T13:15:39Z
2023-09-16T11:16:20Z,42.805,6.029,13.3061,4.60211,2470.693,2023-9-16T13:18:42Z
2023-09-16T11:19:23Z,42.805,6.029,13.3051,4.60210,2470.693,2023-9-16T13:21:45Z
2023-09-16T11:22:26Z,42.805,6.029,13.3073,4.60175,2470.74,2023-9-16T13:24:48Z
2023-09-16T11:25:29Z,42.805,6.029,13.3061,4.60178,2470.717,2023-9-16T13:27:51Z
2023-09-16T11:28:32Z,42.805,6.029,13.3056,4.60175,2470.717,2023-9-16T13:30:54Z
2023-09-16T11:31:35Z,42.805,6.029,13.3059,4.60179,2470.707,2023-9-16T13:33:58Z
2023-09-16T11:34:39Z,42.805,6.029,13.3058,4.60164,2470.717,2023-9-16T13:37:01Z
2023-09-16T11:37:42Z,42.805,6.029,13.3059,4.60196,2470.693,2023-9-16T13:40:04Z
2023-09-16T11:40:45Z,42.805,6.029,13.3053,4.60163,2470.717,2023-9-16T13:43:07Z
2023-09-16T11:43:48Z,42.805,6.029,13.3051,4.60161,2470.717,2023-9-16T13:46:10Z
2023-09-16T11:46:51Z,42.805,6.029,13.3047,4.60173,2470.684,2023-9-16T13:49:13Z
2023-09-16T11:49:54Z,42.805,6.029,13.3056,4.60163,2470.693,2023-9-16T13:52:16Z
2023-09-16T11:52:57Z,42.805,6.029,13.3039,4.60166,2470.67,2023-9-16T13:55:19Z
2023-09-16T11:56:00Z,42.805,6.029,13.3057,4.60152,2470.717,2023-9-16T13:58:22Z
2023-09-16T11:59:03Z,42.805,6.029,13.3045,4.60169,2470.693,2023-9-16T14:01:25Z
2023-09-16T12:02:06Z,42.805,6.029,13.3048,4.60162,2470.693,2023-9-16T14:04:28Z
2023-09-16T12:05:09Z,42.805,6.029,13.3057,4.60182,2470.693,2023-9-16T14:07:31Z
2023-09-16T12:08:12Z,42.805,6.029,13.3056,4.60183,2470.684,2023-9-16T14:10:35Z
2023-09-16T12:11:16Z,42.805,6.029,13.3042,4.60160,2470.693,2023-9-16T14:13:38Z
2023-09-16T12:14:19Z,42.805,6.029,13.3063,4.60173,2470.67,2023-9-16T14:16:41Z
2023-09-16T12:17:22Z,42.805,6.029,13.3059,4.60177,2470.646,2023-9-16T14:19:44Z
2023-09-16T12:20:25Z,42.805,6.029,13.3062,4.60184,2470.684,2023-9-16T14:22:47Z
2023-09-16T12:23:28Z,42.805,6.029,13.3048,4.60157,2470.646,2023-9-16T14:25:50Z
2023-09-16T12:26:31Z,42.805,6.029,13.3056,4.60161,2470.693,2023-9-16T14:28:53Z
2023-09-16T12:29:34Z,42.805,6.029,13.3045,4.60164,2470.67,2023-9-16T14:31:56Z
2023-09-16T12:32:37Z,42.805,6.029,13.3052,4.60177,2470.637,2023-9-16T14:34:59Z
2023-09-16T12:35:40Z,42.805,6.029,13.3061,4.60181,2470.684,2023-9-16T14:38:02Z
2023-09-16T12:38:43Z,42.805,6.029,13.3069,4.60180,2470.646,2023-9-16T14:41:05Z
2023-09-16T12:41:46Z,42.805,6.029,13.3063,4.60167,2470.624,2023-9-16T14:44:09Z
2023-09-16T12:44:50Z,42.805,6.029,13.3063,4.60195,2470.684,2023-9-16T14:47:12Z
2023-09-16T12:47:53Z,42.805,6.029,13.3059,4.60195,2470.646,2023-9-16T14:50:15Z
2023-09-16T12:50:56Z,42.805,6.029,13.3052,4.60172,2470.624,2023-9-16T14:53:18Z
2023-09-16T12:53:59Z,42.805,6.029,13.3052,4.60155,2470.646,2023-9-16T14:56:21Z
2023-09-16T12:57:02Z,42.805,6.029,13.3048,4.60180,2470.67,2023-9-16T14:59:24Z
2023-09-16T13:00:05Z,42.805,6.029,13.3067,4.60197,2470.684,2023-9-16T15:02:27Z
2023-09-16T13:03:08Z,42.805,6.029,13.3061,4.60180,2470.684,2023-9-16T15:05:30Z
2023-09-16T13:06:11Z,42.805,6.029,13.3048,4.60167,2470.684,2023-9-16T15:08:33Z
2023-09-16T13:09:14Z,42.805,6.029,13.3058,4.60178,2470.684,2023-9-16T15:11:36Z
2023-09-16T13:12:17Z,42.805,6.029,13.3054,4.60180,2470.661,2023-9-16T15:14:39Z
2023-09-16T13:15:20Z,42.805,6.029,13.3059,4.60162,2470.646,2023-9-16T15:17:43Z
2023-09-16T13:18:24Z,42.805,6.029,13.3069,4.60139,2470.684,2023-9-16T15:20:46Z
2023-09-16T13:21:27Z,42.805,6.029,13.3045,4.60182,2470.646,2023-9-16T15:23:49Z
2023-09-16T13:24:30Z,42.805,6.029,13.3054,4.60169,2470.637,2023-9-16T15:26:52Z
2023-09-16T13:27:33Z,42.805,6.029,13.3046,4.60169,2470.67,2023-9-16T15:29:55Z
2023-09-16T13:30:36Z,42.805,6.029,13.3039,4.60141,2470.661,2023-9-16T15:32:58Z
2023-09-16T13:33:39Z,42.805,6.029,13.3060,4.60138,2470.646,2023-9-16T15:36:01Z
2023-09-16T13:36:42Z,42.805,6.029,13.3044,4.60159,2470.637,2023-9-16T15:39:04Z
2023-09-16T13:39:45Z,42.805,6.029,13.3046,4.60178,2470.661,2023-9-16T15:42:07Z
2023-09-16T13:42:48Z,42.805,6.029,13.3049,4.60161,2470.624,2023-9-16T15:45:10Z
2023-09-16T13:45:51Z,42.805,6.029,13.3048,4.60165,2470.684,2023-9-16T15:48:13Z
2023-09-16T13:48:54Z,42.805,6.029,13.3051,4.60165,2470.6,2023-9-16T15:51:16Z
2023-09-16T13:51:58Z,42.805,6.029,13.3055,4.60144,2470.646,2023-9-16T15:54:20Z
2023-09-16T13:55:01Z,42.805,6.029,13.3046,4.60175,2470.646,2023-9-16T15:57:23Z
2023-09-16T13:58:04Z,42.805,6.029,13.3058,4.60166,2470.624,2023-9-16T16:00:26Z
2023-09-16T14:01:07Z,42.805,6.029,13.3077,4.60163,2470.684,2023-9-16T16:03:29Z
2023-09-16T14:04:10Z,42.805,6.029,13.3066,4.60163,2470.67,2023-9-16T16:06:32Z
2023-09-16T14:07:13Z,42.805,6.029,13.3059,4.60188,2470.646,2023-9-16T16:09:35Z
2023-09-16T14:10:16Z,42.805,6.029,13.3066,4.60169,2470.646,2023-9-16T16:12:38Z
2023-09-16T14:13:19Z,42.805,6.029,13.3047,4.60143,2470.674,2023-9-16T16:15:41Z
2023-09-16T14:16:22Z,42.805,6.029,13.3056,4.60162,2470.67,2023-9-16T16:18:44Z
2023-09-16T14:19:25Z,42.805,6.029,13.3061,4.60147,2470.67,2023-9-16T16:21:47Z
2023-09-16T14:22:28Z,42.805,6.029,13.3051,4.60160,2470.624,2023-9-16T16:24:50Z
2023-09-16T14:25:31Z,42.805,6.029,13.3053,4.60170,2470.661,2023-9-16T16:27:54Z
2023-09-16T14:28:35Z,42.805,6.029,13.3049,4.60178,2470.646,2023-9-16T16:30:57Z
2023-09-16T14:31:38Z,42.805,6.029,13.3056,4.60142,2470.624,2023-9-16T16:34:00Z
2023-09-16T14:34:41Z,42.805,6.029,13.3068,4.60143,2470.61,2023-9-16T16:37:03Z
2023-09-16T14:37:44Z,42.805,6.029,13.3043,4.60147,2470.646,2023-9-16T16:40:06Z
2023-09-16T14:40:47Z,42.805,6.029,13.3052,4.60176,2470.624,2023-9-16T16:43:09Z
2023-09-16T14:43:50Z,42.805,6.029,13.3042,4.60172,2470.646,2023-9-16T16:46:12Z
2023-09-16T14:46:53Z,42.805,6.029,13.3048,4.60190,2470.67,2023-9-16T16:49:15Z
2023-09-16T14:49:56Z,42.805,6.029,13.3048,4.60194,2470.646,2023-9-16T16:52:18Z
2023-09-16T14:52:59Z,42.805,6.029,13.3049,4.60193,2470.646,2023-9-16T16:55:21Z
2023-09-16T14:56:02Z,42.805,6.029,13.3046,4.60197,2470.646,2023-9-16T16:58:24Z
2023-09-16T14:59:05Z,42.805,6.029,13.3061,4.60187,2470.624,2023-9-16T17:01:27Z
2023-09-16T15:02:09Z,42.805,6.029,13.3052,4.60199,2470.661,2023-9-16T17:04:31Z
2023-09-16T15:05:12Z,42.805,6.029,13.3046,4.60178,2470.646,2023-9-16T17:07:34Z
2023-09-16T15:08:15Z,42.805,6.029,13.3045,4.60185,2470.624,2023-9-16T17:10:37Z
2023-09-16T15:11:18Z,42.805,6.029,13.3046,4.60148,2470.646,2023-9-16T17:13:40Z
2023-09-16T15:14:21Z,42.805,6.029,13.3058,4.60146,2470.661,2023-9-16T17:16:43Z